Location: Bílinka
(49.3579°N, 14.3767°E)
Time: 01:30:46
(UTC+00:00)

Cosmos 2237 - Pass Details

Date: 28 January 2023
Orbit: 845 x 857 km, 70.8° (Epoch: 31 March)

Event Time Altitude Azimuth Distance (km) Brightness Sun altitude
Rises 18:27:30 0° 197° (SSW) 3,400 7.5 -25.3°
Reaches altitude 10° 18:29:57 10° 195° (SSW) 2,471 6.8 -25.7°
Enters shadow 18:34:41 57° 160° (SSE) 995 4.3 -26.5°
